Regional Weather Roundup
Issued by NWS

Home | Current Version | Previous Version | Graphics & Text | Print | Product List | Glossary Off
Versions: 1 2 3 4 5 6 7 8 9 10 11 12 13 14 15 16 17 18 19 20 21 22 23 24 25 26 27 28 29 30 31 32 33 34 35 36 37 38 39 40 41 42 43 44 45 46 47 48 49 50

000
ASUS43 KTOP 251259
RWRKS

WEATHER ROUNDUP FOR KANSAS
NATIONAL WEATHER SERVICE GOODLAND KS
800 AM CDT TUE JUL 25 2017

NOTE:  "FAIR" INDICATES FEW OR NO CLOUDS BELOW 12,000 FEET WITH NO
SIGNIFICANT WEATHER AND/OR OBSTRUCTIONS TO VISIBILITY.

KSZ001>006-013>018-027>032-041>047-251400-
NORTHWEST KANSAS

CITY           SKY/WX    TMP DP  RH WIND       PRES   REMARKS
GOODLAND       SUNNY     71  65  81 S17       30.02S
HAYS             N/A     73  65  75 S6        30.04R
HILL CITY      SUNNY     75  65  70 S9        30.02R
RUSSELL        SUNNY     73  65  75 S12       30.03S
$$

KSZ061>065-074>080-084>089-251400-
SOUTHWEST KANSAS

CITY           SKY/WX    TMP DP  RH WIND       PRES   REMARKS
DODGE CITY     SUNNY     75  67  76 S12       30.06S
ELKHART          N/A     67  54  63 S12         N/A
GARDEN CITY    SUNNY     72  67  84 S10       30.06R
GREAT BEND     SUNNY     73  67  81 S8        30.06R
LIBERAL        SUNNY     72  68  87 SE9       30.07R
$$

KSZ066>073-081>083-090>101-251400-
SOUTHEAST KANSAS

CITY           SKY/WX    TMP DP  RH WIND       PRES   REMARKS
CHANUTE        SUNNY     77  73  87 SE5       30.07R
COFFEYVILLE    SUNNY     77  72  84 S5        30.06R
HUTCHINSON     SUNNY     76  70  82 S7        30.06R
MEDICINE LODGE   N/A     74  67  78 SE5       30.05R
NEWTON         SUNNY     76  71  85 S7        30.08R
PARSONS        SUNNY     76  72  87 CALM      30.08R
WICHITA INTL   MOSUNNY   77  71  82 S8        30.06R
WICHITA JABRA  SUNNY     77  71  82 S9        30.06R
WICHITA MCCONL SUNNY     77  69  76 S8        30.06R
WINFIELD       SUNNY     77  71  82 S7        30.07R
$$

KSZ007>012-019>026-033>040-048>060-102>105-251400-
NORTHEAST KANSAS

CITY           SKY/WX    TMP DP  RH WIND       PRES   REMARKS
CONCORDIA      SUNNY     77  70  79 S14       30.02S
EMPORIA        SUNNY     75  72  90 SE7       30.06R
LAWRENCE       SUNNY     73  70  90 E5        30.06R
MANHATTAN      SUNNY     77  73  87 CALM      30.04R
OLATHE IND     SUNNY     75  68  78 SE8       30.08R
OLATHE EXE     SUNNY     73  68  84 SE8       30.08R
SALINA         SUNNY     78  69  73 S8        30.04R
TOPEKA BILLARD SUNNY     75  71  87 SE3       30.06R
TOPEKA FORBES  SUNNY     75  70  84 SE6       30.06R
$$



USA.gov is the U.S. government's official web portal to all federal, state and local government web resources and services.